www.pogodaiklimat.ru

ПОГОДА в Оха

  • Прогноз погоды в Оха
  • Монитор погоды в Оха
  • Климат города

АРХИВ ПОГОДЫ в Оха

Время (UTC), дата Ветер
(напр.,м/с)
 
Видим.   Явления Облачность Т
(С)
Тd
(С)
f
(%)
Тe
(С)
Тes
(С)
Комфортность P
(гПа)
Po
(гПа)
Тmin
(С)
Tmax
(С)
R
(мм)
S
(см)
00 5.01 СЗ 2-3
{3}
4000 м дымка 3/3 100 м
[St]
-25.9 -28.5 79 -33 -32 опасность
обморожения
1026.8 1021.4
06 5.01 З 2-3
{4}
20 км 3/3 300 м
[Sc]
-19.0 -21.1 83 -25 -25 1023.9 1018.7
12 5.01 З 3-3
{3}
20 км 3/0
[Ac trans]
-22.3 -24.6 81 -30 -30 1021.0 1015.7
18 5.01 З 3-5
{5}
20 км 3/0
[Ac trans]
-21.0 -23.2 82 -29 -29 1016.5 1011.3
00 6.01 З 4-7
{7}
20 км в посл. час ливневой снег 9/9 270 м
[Cb cap]
-17.4 -19.2 86 -26 -26 1016.7 1011.5
06 6.01 З 2-3
{7}
20 км ясно -16.2 -18.8 80 -21 -21 1015.3 1010.2
12 6.01 Ю 3-3
{4}
20 км ясно -20.5 -22.7 82 -28 -28 1014.7 1009.5
18 6.01 З 1-2
{3}
20 км ясно -19.5 -21.8 82 -22 -22 1014.9 1009.7
00 7.01 СЗ 1-2
{4}
20 км 5/0
[Ac trans Ci fib]
-20.9 -22.9 84 -24 -24 1018.0 1012.8
06 7.01 З 3-4
{7}
20 км 4/3 600 м
[Cb cap Ci fib]
-17.4 -19.8 82 -24 -24 1018.8 1013.7
12 7.01 З 2-4
{5}
20 км 5/0
[Ci fib]
-19.2 -21.1 85 -25 -25 1019.3 1014.1
18 7.01 штиль 0
{3}
20 км 3/0
[Ci fib]
-22.0 -24.2 82 -22 -22 1017.8 1012.5
00 8.01 СЗ 1-2
{3}
20 км ясно -22.0 -24.3 82 -25 -25 1016.0 1010.8
06 8.01 З 3-4
{6}
20 км ясно -16.3 -19.2 78 -23 -23 1011.7 1006.6
12 8.01 З 3-4
{4}
20 км ясно -19.4 -21.3 85 -27 -27 1008.7 1003.5
18 8.01 З 2-3
{6}
4000 м слабый ливневой снег 8/8 300 м
[Cb cap]
-17.4 -19.1 87 -23 -23 1006.5 1001.4
00 9.01 З 2-4
{4}
20 км {ливн. осадки} 9/3 300 м
[Cb cap Ac trans Ci sp]
-19.1 -21.1 84 -25 -25 1006.1 1001.0 -21.0
06 9.01 СЗ 2-2
{5}
20 км 10/0
[Cs]
-17.8 -20.4 80 -23 -23 1004.9 999.8
12 9.01 С 2-4
{4}
4000 м слабый ливневой снег 10/8 330 м
[Cb cap Cs]
-15.5 -17.5 85 -21 -21 1005.5 1000.4
18 9.01 С 5-10
{10}
2000 м слабый ливневой снег 10/10 120 м
[Cb cap]
-14.8 -16.7 85 -24 -24 1004.0 999.0
00 10.01 С 10-16
{17}
1000 м ливневой снег {метель} 10/10 100 м
[Cb cap]
-11.2 -12.6 89 -22 -22 997.2 992.3
06 10.01 ЮВ 6-12
{17}
4000 м слабый ливневой снег {метель} 9/9 480 м
[Cb cap]
-5.5 -7.4 86 -13 -13 990.1 985.3
12 10.01 Ю 6-8
{9}
4000 м слабый ливневой снег 9/9 450 м
[Cb cap]
-16.8 -19.4 80 -27 -27 996.1 991.1
18 10.01 Ю 1-1
{6}
20 км {ливн. осадки} 9/3 300 м
[Cb cap Cs]
-20.6 -23.5 77 -24 -24 1001.2 996.1
00 11.01 З 3-5
{7}
4000 м слабый ливневой снег 10/10 240 м
[Cb cap]
-20.3 -22.9 80 -28 -28 1000.8 995.6
06 11.01 СЗ 5-8
{10}
2000 м слабый ливневой снег 10/10 150 м
[Cb cap]
-17.0 -19.4 82 -26 -26 993.7 988.7
09 11.01 СЗ 3-7
{9}
2000 м слабый ливневой снег 10/10 150 м
[Cb cap]
-11.5 -12.5 92 -17 -17 988.0 983.1 -11.5 3
12 11.01 С 10-19
{19}
500 м ливневой снег {метель} 10/10 100 м
[Cb cap]
-3.0 -3.0 100 -12 -12 980.6 975.9
18 11.01 В 13-25
{29}
1000 м слабый ливневой снег {метель} 10/10 100 м
[Cb cap]
-10.7 -12.0 90 -23 -23 982.7 977.8
21 11.01 В 9-15
{25}
10 км позёмок {ливн. осадки, метель} 4/4 300 м
[Cb cap]
-12.1 -14.5 82 -23 -23 989.2 984.3 -12.2 6 64
00 12.01 В 8-14
{16}
20 км позёмок {ливн. осадки, метель} 4/4 300 м
[Cb cap]
-10.8 -15.1 71 -21 -20 994.6 989.7
06 12.01 В 4-7
{12}
20 км {метель} 5/5 300 м
[Cb cap]
-8.7 -13.2 70 -15 -15 1000.6 995.7
09 12.01 В 3-5
{9}
20 км 4/4 300 м
[Cb cap]
-8.9 -12.2 77 -15 -15 1002.6 997.7 -8.2
12 12.01 С 2-2
{7}
20 км в посл. час ливневой снег 8/6 420 м
[Cb cap Ci sp]
-9.4 -10.8 90 -14 -14 1004.2 999.3
18 12.01 СЗ 1-2
{2}
20 км {ливн. осадки} 3/3 300 м
[Cb cap]
-16.1 -17.5 89 -19 -19 1007.4 1002.3
21 12.01 СЗ 1-1
{2}
20 км 9/3 300 м
[Cb cap Ac trans]
-12.6 -13.7 91 -15 -15 1008.7 1003.7 -17.7 1 61
00 13.01 С 2-3
{3}
2000 м слабый ливневой снег 10/10 150 м
[Cb cap]
-7.9 -8.3 97 -12 -12 1009.5 1004.6
06 13.01 В 3-5
{9}
20 км {ливн. осадки} 8/8 540 м
[Cb cap]
-4.2 -5.5 91 -10 -10 1013.1 1008.2
09 13.01 С 4-7
{7}
20 км 8/8 570 м
[Cb cap]
-4.0 -5.0 93 -10 -10 1014.2 1009.3 -3.4 5
12 13.01 С 6-12
{12}
20 км 8/8 630 м
[Cb cap]
-4.1 -7.1 80 -12 -12 1014.2 1009.3
18 13.01 СВ 5-11
{11}
1000 м ливневой снег 10/10 100 м
[Cb cap]
-2.0 -2.0 100 -9 -9 1011.8 1007.0
21 13.01 СВ 6-10
{13}
4000 м слабый ливневой снег 10/10 270 м
[Cb cap]
-2.1 -2.3 99 -10 -10 1012.1 1007.3 -4.8 2 72
00 14.01 СВ 7-12
{16}
1000 м ливневой снег 10/10 100 м
[Cb cap]
-1.8 -1.8 100 -10 -10 1012.5 1007.7
06 14.01 СВ 7-15
{16}
2000 м слабый ливневой снег 10/10 150 м
[Cb cap]
-1.2 -1.4 99 -9 -9 1014.3 1009.5
09 14.01 СВ 6-10
{16}
20 км {ливн. осадки} 10/10 240 м
[Cb cap]
-1.5 -2.1 96 -9 -9 1016.3 1011.5 -1.0 3
12 14.01 СВ 5-9
{12}
20 км {ливн. осадки} 10/10 270 м
[Cb cap]
-1.4 -2.1 95 -8 -8 1018.0 1013.1
18 14.01 СВ 6-11
{11}
20 км в посл. час ливневой снег 10/10 240 м
[Cb cap]
-2.3 -3.0 95 -10 -10 1020.6 1015.8
21 14.01 СВ 5-9
{13}
20 км 9/9 330 м
[Cb cap]
-2.6 -4.3 88 -9 -9 1022.3 1017.4 -2.6 1 70
00 15.01 С 3-6
{11}
20 км 9/9 480 м
[Cb cap]
-2.4 -3.9 89 -8 -8 1023.7 1018.8 -2.8
06 15.01 С 3-6
{8}
2000 м слабый ливневой снег 10/10 240 м
[Cb cap]
-2.9 -3.6 95 -8 -8 1024.0 1019.0
09 15.01 С 5-8
{10}
20 км {ливн. осадки} 9/6 450 м
[Cb cap Ac trans]
-4.1 -5.3 91 -11 -11 1024.9 1020.0 -1.9 0.8
12 15.01 С 4-7
{10}
20 км {ливн. осадки} 9/5 300 м
[Cb cap Ac trans]
-5.0 -7.6 82 -11 -11 1025.5 1020.5
18 15.01 СЗ 4-5
{7}
20 км в посл. час ливневой снег 9/4 300 м
[Cb cap Ac trans]
-6.6 -9.1 82 -13 -13 1025.2 1020.3
00 16.01 СЗ 5-8
{11}
4000 м слабый ливневой снег 10/8 300 м
[Cb cap Ac und]
-10.1 -11.8 87 -18 -18 1025.9 1020.8 -10.1
06 16.01 СЗ 4-7
{10}
4000 м слабый ливневой снег 9/6 360 м
[Cb cap Ac trans]
-10.1 -11.7 88 -17 -17 1025.5 1020.5
12 16.01 СЗ 4-7
{9}
20 км в посл. час ливневой снег 9/4 300 м
[Cb cap Ac trans]
-9.7 -11.0 90 -17 -17 1026.1 1021.0

 

Местоположение метеостанции Оха (Сахалинская область, Россия): широта 53.50 долгота 142.90 высота над уровнем моря 37 м.

В архиве по умолчанию представлена погода в Оха за последнюю неделю. Архивные данные за месяц целиком и за предыдущие месяцы, начиная с января 2011 года, Вы можете получить, выбрав интересующий диапазон дат из раскрывающегося списка и нажав кнопку "Ввод!".

Внимание! Время в таблицах - всемирное. Для получения местного времени необходимо прибавить поправку, которая в Оха равна 11 ч.

Ветер - указаны скорость ветра в м/с - средняя за 10 мин, порывы в срок и между сроками (в фигурных скобках) и направление, откуда дует ветер: С - северный, СВ - северо-восточный, В - восточный, ЮВ - юго-восточный, Ю - южный, ЮЗ - юго-западный, З - западный, СЗ - северо-западный.
Видимость - горизонтальная дальность видимости в метрах или километрах. При видимости от 1 до 10 км при отсутствии осадков обычно наблюдается дымка, при ухудшении видимости до 1 км и менее - туман. В сухую погоду видимость может ухудшаться дымом, пылью или мглою.
Явления - указаны атмосферные явления, наблюдавшиеся в срок или в последний час перед сроком; фигурными скобками обозначены явления, наблюдавшиеся между сроками (за 1-3 часа до срока); квадратными скобками обозначены град или гололедные отложения с указанием их диаметра в мм.
Облачность - указаны через наклонную черту общая и нижняя облачность в баллах и высота нижней границы облаков в метрах; квадратными скобками обозначены формы облаков: Ci - перистые, Cs - перисто-слоистые, Cc - перисто-кучевые, Ac - высококучевые, As - высокослоистые, Sc - слоисто-кучевые, Ns - слоисто-дождевые, Cu - кучевые, Cb - кучево-дождевые. Подробнее классификацию облаков см. в Атласе облаков (PDF).
T - Температура воздуха - температура, измеренная на высоте 2 м над землей.
Td - Температура точки росы - температура, при понижении до которой содержащийся в воздухе водяной пар достигнет насыщения.
f - Относительная влажность воздуха - влажноcть воздуха, измеренная на высоте 2 м над землей.
Te - Эффективная температура - температура, которую ощущает одетый по сезону человек в тени. Характеристика душности погоды. При расчете учитывается влияние влажности воздуха и скорости ветра на теплоощущения человека.
Tes - Эффективная температура на солнце - температура, которую ощущает человек, с поправкой на солнечный нагрев. Характеристика знойности погоды. Зависит от высоты солнца над горизонтом, облачности и скорости ветра. Ночью, в пасмурную погоду, а также при ветре 12 м/с и более поправка равна нулю.
P - Атмосферное давление - приведенное к уровню моря атмосферное давление.
Po - Атмосферное давление - измеренное на уровне метеостанции атмосферное давление.
Tmin - Минимальная температура - минимум температуры воздуха на высоте 2 м над землей.
Tmax - Максимальная температура - максимум температуры воздуха на высоте 2 м над землей.
R - Количество осадков - Количество выпавших осадков, мм. При наведении курсора мыши на число - период времени, за который выпало указанное количество осадков.
S - Снежный покров - Высота снежного покрова, см. При наведении курсора мыши на число - состояние снежного покрова и степень покрытия местности в баллах.